Find Yaogan 35 01 zu 02 xing

NORAD ID: 49393 Int'l Des: 2021-101 Owner: ZZB Country: CN Constellation: yaogan operational
LEOCIRCULAR

リアルタイム位置

3D地球を読み込み中...

Yaogan 35 01 zu 02 xingについて

説明を読み込み中...

次回通過

Passes for default location (London). Set your location on the main map for personalized predictions.

高度履歴

Loading altitude history...

軌道要素

1 49393U 21101D 26106.92552944 .00008685 00000-0 36260-3 0 9995
2 49393 35.0044 290.1768 0008958 197.0232 163.0183 15.22876293247665
Epoch: Apr 16, 2026 • Age: 11 hours

現在のステータス

高度 501.6 km
速度 7.62 km/s
衛星直下点 -33.08°S, 161.69°W
打ち上げ日 Nov 6, 2021
運用期間 4.4 years
タイプ military

技術仕様

分類 Payload
質量 300.00 kg
乾燥質量 300.00 kg
総質量 300.00 kg
長さ 2.50 m
直径 2.50 m
スパン 5.00 m
形状 Box + 2 Pan
製造者 DFHZ
フェーズステータス In Orbit
所有者/国 ZZB/CN

Most Searched